Weather History for Richlands, VA

Change the Weather History Date:

Wednesday, January 15, 2014

  Actual Average (KBLF) Record (KBLF)
Temperature  
Mean Temperature 34 °F 34 °F  
Max Temperature 43 °F 42 °F 65 °F (2007)
Min Temperature 25 °F 26 °F -9 °F (1994)
Degree Days  
Heating Degree Days 30 31  
Month to date heating degree days 465  
Since 1 July heating degree days 2230  
Cooling Degree Days 0 0  
Month to date cooling degree days 0  
Year to date cooling degree days 0  
Moisture  
Dew Point 27 °F    
Average Humidity 78    
Maximum Humidity 96    
Minimum Humidity 55    
Precipitation  
Precipitation 0.06 in 0.10 in 1.46 in (1995)
Month to date precipitation 1.42  
Year to date precipitation 1.42  
Snow  
Snow 0.00 in - - ()
Month to date snowfall  
Since 1 July snowfall  
Snow Depth -    
Sea Level Pressure  
Sea Level Pressure 29.91 in    
Wind  
Wind Speed 6 mph (WNW)    
Max Wind Speed 12 mph    
Max Gust Speed 16 mph    
Visibility 7 miles    
Events Snow    
T = Trace of Precipitation, MM = Missing Value Source: NWS Daily Summary

Daily Weather History Graph

Daily Weather History Graph

Search for Another Location

Airport:

Trip Planner

Search our weather history database for the weather conditions in past years. The results will help you decide how hot, cold, wet, or windy it might be!

Date:

Astronomy

Jan. 15, 2014 Rise Set
Actual Time 7:39 AM EST 5:33 PM EST
Civil Twilight 7:11 AM EST 6:02 PM EST
Nautical Twilight 6:39 AM EST 6:34 PM EST
Astronomical Twilight 6:08 AM EST 7:05 PM EST
Moon 5:29 PM EST 6:55 AM EST
Length of Visible Light 10h 51m
Length of Day
9h 54m
Full, 100% of the Moon is Illuminated
Jan 15
Full
Jan 15
Full
Jan 24
Last Quarter
Jan 30
New
Feb 6
First Quarter

Hourly Weather History & Observations

Time (EST) Temp. Windchill Dew Point Humidity Pressure Visibility Wind Dir Wind Speed Gust Speed Precip Events Conditions
12:15 AM 42.8 °F 37.5 °F 28.8 °F 58% 29.89 in 10.0 mi SW 9.2 mph - N/A   Clear
12:35 AM 42.3 °F 37.3 °F 28.6 °F 58% 29.89 in 10.0 mi SW 8.1 mph - N/A   Scattered Clouds
12:55 AM 42.3 °F 37.9 °F 28.0 °F 57% 29.88 in 10.0 mi WSW 6.9 mph - N/A   Clear
1:15 AM 42.8 °F 37.5 °F 27.7 °F 55% 29.87 in 10.0 mi SW 9.2 mph - N/A   Scattered Clouds
1:35 AM 42.8 °F 37.5 °F 28.2 °F 56% 29.87 in 10.0 mi WSW 9.2 mph - N/A   Clear
1:55 AM 42.8 °F 36.6 °F 28.4 °F 57% 29.87 in 10.0 mi WSW 11.5 mph 16.1 mph N/A   Clear
2:15 AM 42.8 °F 38.6 °F 28.8 °F 58% 29.87 in 10.0 mi SW 6.9 mph - N/A   Scattered Clouds
2:35 AM 43.0 °F 37.7 °F 28.9 °F 58% 29.87 in 10.0 mi WSW 9.2 mph 16.1 mph N/A   Mostly Cloudy
2:55 AM 42.8 °F 37.0 °F 29.3 °F 59% 29.87 in 10.0 mi SW 10.4 mph 16.1 mph N/A   Overcast
3:15 AM 42.8 °F 37.5 °F 29.1 °F 58% 29.87 in 10.0 mi WSW 9.2 mph - N/A   Overcast
3:35 AM 41.9 °F 37.5 °F 29.1 °F 61% 29.87 in 10.0 mi WSW 6.9 mph - N/A   Overcast
3:55 AM 40.5 °F 35.8 °F 29.3 °F 64% 29.87 in 10.0 mi West 6.9 mph - N/A   Mostly Cloudy
4:15 AM 40.1 °F 36.9 °F 29.7 °F 66% 29.87 in 10.0 mi West 4.6 mph - N/A   Mostly Cloudy
4:35 AM 39.2 °F 33.6 °F 29.7 °F 69% 29.88 in 10.0 mi West 8.1 mph - N/A   Scattered Clouds
4:55 AM 37.6 °F 33.1 °F 30.6 °F 76% 29.88 in 10.0 mi NW 5.8 mph - N/A   Mostly Cloudy
5:15 AM 37.6 °F 34.0 °F 30.9 °F 77% 29.89 in 10.0 mi NNW 4.6 mph - N/A   Overcast
5:35 AM 37.6 °F 33.1 °F 32.0 °F 80% 29.89 in 10.0 mi WNW 5.8 mph - N/A   Overcast
5:55 AM 37.4 °F 32.1 °F 32.5 °F 83% 29.90 in 10.0 mi WNW 6.9 mph - N/A   Overcast
6:15 AM 37.0 °F 30.4 °F 32.9 °F 85% 29.91 in 10.0 mi NW 9.2 mph - N/A   Overcast
6:35 AM 34.9 °F 29.0 °F 32.0 °F 89% 29.91 in 7.0 mi NNW 6.9 mph - N/A Snow Light Snow
6:55 AM 33.8 °F 25.8 °F 30.4 °F 87% 29.92 in 5.0 mi NNW 10.4 mph - N/A Snow Light Snow
7:15 AM 33.1 °F 27.7 °F 30.7 °F 91% 29.92 in 2.0 mi NW 5.8 mph - N/A Snow Light Snow
7:35 AM 32.9 °F 27.5 °F 31.1 °F 93% 29.93 in 1.0 mi NNW 5.8 mph - N/A Snow Light Snow
7:55 AM 32.2 °F 27.7 °F 31.1 °F 96% 29.94 in 0.8 mi NW 4.6 mph - N/A Snow Light Snow
8:15 AM 32.0 °F 27.5 °F 30.9 °F 96% 29.94 in 0.5 mi NW 4.6 mph - N/A Snow Light Snow
8:35 AM 32.0 °F 28.7 °F 30.7 °F 95% 29.96 in 1.0 mi WNW 3.5 mph - 0.01 in Snow Light Snow
8:55 AM 32.0 °F 27.5 °F 30.6 °F 94% 29.96 in 2.0 mi WNW 4.6 mph - 0.01 in Snow Light Snow
9:15 AM 32.0 °F 27.5 °F 29.8 °F 92% 29.97 in 2.5 mi WNW 4.6 mph - N/A Snow Light Snow
9:35 AM 32.0 °F 27.5 °F 29.3 °F 90% 29.97 in 1.8 mi NW 4.6 mph - N/A Snow Light Snow
9:55 AM 32.0 °F 28.7 °F 29.5 °F 90% 29.97 in 1.2 mi West 3.5 mph - N/A Snow Light Snow
10:15 AM 32.0 °F 25.6 °F 28.9 °F 88% 29.97 in 1.2 mi WSW 6.9 mph - N/A Snow Light Snow
10:35 AM 32.0 °F 26.4 °F 28.8 °F 88% 29.97 in 1.2 mi West 5.8 mph - N/A Snow Light Snow
10:55 AM 32.4 °F 27.9 °F 29.1 °F 88% 29.96 in 1.0 mi WSW 4.6 mph - N/A Snow Light Snow
11:15 AM 32.5 °F 29.3 °F 29.5 °F 88% 29.95 in 1.2 mi SSW 3.5 mph - N/A Snow Light Snow
11:35 AM 32.2 °F 28.9 °F 29.5 °F 90% 29.94 in 7.0 mi SW 3.5 mph - N/A Snow Light Snow
11:55 AM 32.4 °F - 29.5 °F 89% 29.94 in 2.0 mi Calm Calm - N/A Snow Light Snow
12:15 PM 32.4 °F - 30.0 °F 91% 29.92 in 1.8 mi Calm Calm - N/A Snow Light Snow
12:35 PM 32.9 °F 29.8 °F 29.7 °F 88% 29.91 in 2.5 mi West 3.5 mph - 0.01 in Snow Light Snow
12:55 PM 33.4 °F - 25.0 °F 71% 29.90 in 10.0 mi Calm Calm - 0.01 in   Overcast
1:15 PM 33.6 °F 30.6 °F 27.5 °F 78% 29.89 in 10.0 mi South 3.5 mph - N/A   Overcast
1:35 PM 33.6 °F 29.4 °F 28.2 °F 81% 29.89 in 10.0 mi SSW 4.6 mph - N/A   Overcast
1:55 PM 33.4 °F 30.4 °F 27.3 °F 78% 29.89 in 10.0 mi South 3.5 mph - N/A   Overcast
2:15 PM 33.1 °F 30.0 °F 27.5 °F 80% 29.88 in 10.0 mi SSW 3.5 mph - N/A   Overcast
2:35 PM 32.9 °F 29.8 °F 28.6 °F 84% 29.88 in 10.0 mi South 3.5 mph - N/A   Overcast
2:55 PM 33.4 °F 30.4 °F 29.3 °F 85% 29.88 in 10.0 mi SSW 3.5 mph - N/A   Overcast
3:15 PM 33.4 °F - 29.7 °F 86% 29.87 in 10.0 mi Calm Calm - N/A   Overcast
3:35 PM 34.0 °F 31.0 °F 29.1 °F 82% 29.87 in 10.0 mi South 3.5 mph - N/A   Overcast
3:55 PM 34.0 °F - 29.8 °F 85% 29.87 in 10.0 mi Calm Calm - N/A   Overcast
4:15 PM 34.3 °F - 30.0 °F 84% 29.87 in 10.0 mi Calm Calm - N/A   Overcast
4:35 PM 33.8 °F - 29.3 °F 84% 29.87 in 3.0 mi Calm Calm - N/A Snow Light Snow
4:55 PM 32.7 °F - 30.6 °F 92% 29.87 in 0.5 mi Calm Calm - N/A Snow Snow
5:15 PM 32.9 °F - 31.1 °F 93% 29.88 in 2.0 mi Calm Calm - N/A Snow Light Snow
5:35 PM 32.2 °F - 30.2 °F 92% 29.88 in 0.8 mi Calm Calm - 0.01 in Snow Snow
5:55 PM 32.2 °F - 30.6 °F 94% 29.89 in 1.0 mi Calm Calm - 0.04 in Snow Light Snow
6:15 PM 32.2 °F 24.4 °F 29.5 °F 90% 29.90 in 10.0 mi NNW 9.2 mph - N/A   Overcast
6:35 PM 32.0 °F 25.6 °F 25.5 °F 77% 29.91 in 10.0 mi NNW 6.9 mph - N/A   Overcast
6:55 PM 32.0 °F 26.4 °F 24.8 °F 75% 29.91 in 10.0 mi NNW 5.8 mph - N/A Snow Light Snow
7:15 PM 31.8 °F 25.4 °F 24.4 °F 74% 29.91 in 10.0 mi NNW 6.9 mph - N/A   Overcast
7:35 PM 31.6 °F 25.1 °F 23.2 °F 71% 29.92 in 10.0 mi NW 6.9 mph - N/A   Overcast
7:55 PM 31.1 °F 23.7 °F 21.9 °F 69% 29.93 in 10.0 mi NW 8.1 mph - N/A   Overcast
8:15 PM 30.7 °F 24.1 °F 21.2 °F 68% 29.94 in 10.0 mi NNW 6.9 mph - N/A   Overcast
8:35 PM 30.6 °F 23.1 °F 21.6 °F 69% 29.94 in 10.0 mi NNW 8.1 mph - N/A   Overcast
8:55 PM 30.0 °F 21.7 °F 20.8 °F 69% 29.94 in 10.0 mi NNW 9.2 mph - N/A   Overcast
9:15 PM 29.3 °F 23.2 °F 20.3 °F 69% 29.95 in 10.0 mi NW 5.8 mph - N/A   Overcast
9:35 PM 28.8 °F 20.2 °F 19.8 °F 69% 29.94 in 10.0 mi NNW 9.2 mph - N/A   Overcast
9:55 PM 28.4 °F 19.7 °F 19.2 °F 69% 29.94 in 10.0 mi NNW 9.2 mph - N/A   Overcast
10:15 PM 27.9 °F 20.6 °F 18.5 °F 68% 29.95 in 10.0 mi NNW 6.9 mph - N/A   Overcast
10:35 PM 27.3 °F 19.1 °F 18.0 °F 68% 29.94 in 10.0 mi NNW 8.1 mph - N/A   Overcast
10:55 PM 27.1 °F 19.7 °F 17.8 °F 68% 29.95 in 10.0 mi NNW 6.9 mph - N/A   Overcast
11:15 PM 26.6 °F 22.6 °F 17.4 °F 68% 29.94 in 10.0 mi NNW 3.5 mph - N/A   Overcast
11:35 PM 26.2 °F 20.7 °F 17.1 °F 68% 29.94 in 10.0 mi North 4.6 mph - N/A   Overcast
11:55 PM 25.7 °F 19.0 °F 16.5 °F 68% 29.93 in 10.0 mi North 5.8 mph - N/A   Overcast